WAT3465 ENGM-EFHK

Flight info

Callsign WAT3465
Flight time 0h 59m
Altitude 39000
Route MASEV DCT OTKIL Y368 LAKUT
Aircraft A320/M-SDE3FGHIRWY/LB1

Departure

Time 2026-05-07 17:38
Airport Oslo-Gardermoen International Airport (ENGM)

Arrival

Time 2026-05-07 18:38
Airport Helsinki Vantaa Airport (EFHK)
Time Latitude Longitude Altitude Speed Heading
2026-05-07 17:06 60.19582 11.09274 685 ft 0 kts 196°
2026-05-07 17:09 60.19583 11.09274 685 ft 0 kts 196°
2026-05-07 17:26 60.19586 11.09276 685 ft 2 kts 196°
2026-05-07 17:26 60.19603 11.09286 679 ft 3 kts 196°
2026-05-07 17:26 60.19623 11.09297 680 ft 3 kts 196°
2026-05-07 17:27 60.19642 11.09308 679 ft 3 kts 196°
2026-05-07 17:27 60.19662 11.09318 676 ft 3 kts 196°
2026-05-07 17:27 60.19681 11.09329 678 ft 3 kts 195°
2026-05-07 17:27 60.19698 11.09339 682 ft 1 kts 195°
2026-05-07 17:28 60.19701 11.09340 681 ft 0 kts 195°
2026-05-07 17:30 60.19695 11.09341 682 ft 3 kts 177°
2026-05-07 17:31 60.19684 11.09360 679 ft 2 kts 126°
2026-05-07 17:31 60.19677 11.09430 682 ft 5 kts 103°
2026-05-07 17:31 60.19667 11.09496 683 ft 5 kts 106°
2026-05-07 17:31 60.19682 11.09599 682 ft 10 kts 38°
2026-05-07 17:32 60.19739 11.09635 683 ft 9 kts 14°
2026-05-07 17:32 60.19826 11.09685 683 ft 16 kts 16°
2026-05-07 17:32 60.19919 11.09737 682 ft 7 kts 15°
2026-05-07 17:32 60.19972 11.09770 679 ft 7 kts 23°
2026-05-07 17:33 60.19994 11.09826 684 ft 5 kts 75°
2026-05-07 17:33 60.19986 11.09912 685 ft 6 kts 107°
2026-05-07 17:33 60.19969 11.10029 685 ft 13 kts 105°
2026-05-07 17:33 60.19944 11.10206 685 ft 13 kts 106°
2026-05-07 17:34 60.19918 11.10386 685 ft 14 kts 106°
2026-05-07 17:34 60.19890 11.10578 683 ft 15 kts 105°
2026-05-07 17:34 60.19861 11.10785 684 ft 15 kts 106°
2026-05-07 17:34 60.19830 11.10996 683 ft 16 kts 106°
2026-05-07 17:35 60.19799 11.11224 682 ft 18 kts 104°
2026-05-07 17:35 60.19774 11.11362 680 ft 7 kts 116°
2026-05-07 17:35 60.19754 11.11435 683 ft 4 kts 120°
2026-05-07 17:35 60.19734 11.11538 679 ft 11 kts 106°
2026-05-07 17:36 60.19715 11.11671 683 ft 9 kts 106°
2026-05-07 17:36 60.19696 11.11789 684 ft 8 kts 116°
2026-05-07 17:36 60.19667 11.11855 685 ft 6 kts 138°
2026-05-07 17:36 60.19637 11.11897 684 ft 5 kts 149°
2026-05-07 17:37 60.19595 11.11926 684 ft 11 kts 170°
2026-05-07 17:37 60.19487 11.11882 680 ft 20 kts 196°
2026-05-07 17:37 60.19166 11.11697 684 ft 85 kts 196°
2026-05-07 17:37 60.18382 11.11243 683 ft 147 kts 197°
2026-05-07 17:38 60.17334 11.10619 1141 ft 158 kts 197°
2026-05-07 17:38 60.16275 11.09985 1881 ft 160 kts 196°
2026-05-07 17:38 60.15136 11.09326 2279 ft 183 kts 195°
2026-05-07 17:38 60.13838 11.08618 2648 ft 204 kts 192°
2026-05-07 17:39 60.12341 11.08772 3005 ft 231 kts 158°
2026-05-07 17:39 60.10991 11.10741 3526 ft 253 kts 133°
2026-05-07 17:39 60.09878 11.13547 4384 ft 262 kts 124°
2026-05-07 17:39 60.08863 11.16545 5352 ft 265 kts 124°
2026-05-07 17:40 60.07834 11.19712 6285 ft 271 kts 118°
2026-05-07 17:40 60.07288 11.23288 7137 ft 277 kts 94°
2026-05-07 17:40 60.07465 11.27150 8013 ft 280 kts 79°
2026-05-07 17:40 60.07823 11.31072 8923 ft 286 kts 79°
2026-05-07 17:41 60.08175 11.35031 9789 ft 292 kts 79°
2026-05-07 17:41 60.08529 11.39096 10439 ft 305 kts 79°
2026-05-07 17:41 60.08899 11.43385 10729 ft 328 kts 79°
2026-05-07 17:41 60.09298 11.48055 11000 ft 351 kts 80°
2026-05-07 17:42 60.09716 11.53024 11566 ft 362 kts 80°
2026-05-07 17:42 60.10131 11.57979 12277 ft 368 kts 80°
2026-05-07 17:42 60.10556 11.63078 13017 ft 373 kts 80°
2026-05-07 17:42 60.10986 11.68240 13731 ft 379 kts 80°
2026-05-07 17:43 60.11420 11.73491 14375 ft 384 kts 80°
2026-05-07 17:43 60.11857 11.78815 14997 ft 389 kts 80°
2026-05-07 17:43 60.12301 11.84208 15607 ft 395 kts 79°
2026-05-07 17:43 60.12751 11.89681 16209 ft 400 kts 79°
2026-05-07 17:44 60.13201 11.95218 16806 ft 406 kts 79°
2026-05-07 17:44 60.13655 12.00844 17405 ft 411 kts 79°
2026-05-07 17:44 60.14116 12.06543 18000 ft 416 kts 79°
2026-05-07 17:44 60.14581 12.12319 18561 ft 422 kts 79°
2026-05-07 17:45 60.15046 12.18170 19088 ft 427 kts 79°
2026-05-07 17:45 60.15512 12.24089 19624 ft 431 kts 79°
2026-05-07 17:45 60.15978 12.30060 20159 ft 436 kts 79°
2026-05-07 17:45 60.16448 12.36105 20676 ft 440 kts 79°
2026-05-07 17:46 60.16922 12.42209 21198 ft 444 kts 79°
2026-05-07 17:46 60.17396 12.48373 21716 ft 448 kts 79°
2026-05-07 17:46 60.17865 12.54584 22206 ft 453 kts 79°
2026-05-07 17:46 60.18314 12.60876 22685 ft 457 kts 80°
2026-05-07 17:47 60.18742 12.67234 23153 ft 461 kts 80°
2026-05-07 17:47 60.19155 12.73639 23615 ft 465 kts 81°
2026-05-07 17:47 60.19566 12.80112 23998 ft 468 kts 81°
2026-05-07 17:47 60.19979 12.86633 24363 ft 472 kts 81°
2026-05-07 17:48 60.20399 12.93197 24719 ft 475 kts 80°
2026-05-07 17:48 60.20822 12.99790 25082 ft 478 kts 80°
2026-05-07 17:48 60.21246 13.06440 25437 ft 481 kts 80°
2026-05-07 17:48 60.21669 13.13133 25791 ft 484 kts 80°
2026-05-07 17:49 60.22092 13.19869 26131 ft 487 kts 80°
2026-05-07 17:49 60.22514 13.26646 26474 ft 489 kts 80°
2026-05-07 17:49 60.22937 13.33463 26809 ft 492 kts 80°
2026-05-07 17:49 60.23359 13.40304 27139 ft 495 kts 80°
2026-05-07 17:50 60.23774 13.47201 27441 ft 498 kts 81°
2026-05-07 17:50 60.24185 13.54139 27747 ft 500 kts 81°
2026-05-07 17:50 60.24593 13.61100 28046 ft 503 kts 81°
2026-05-07 17:50 60.25003 13.68113 28334 ft 505 kts 81°
2026-05-07 17:51 60.25413 13.75161 28617 ft 508 kts 81°
2026-05-07 17:51 60.25822 13.82242 28887 ft 510 kts 81°
2026-05-07 17:51 60.26228 13.89340 29152 ft 512 kts 81°
2026-05-07 17:51 60.26634 13.96485 29395 ft 514 kts 81°
2026-05-07 17:52 60.27039 14.03656 29680 ft 515 kts 81°
2026-05-07 17:52 60.27439 14.10827 30027 ft 515 kts 81°
2026-05-07 17:52 60.27832 14.17981 30342 ft 514 kts 81°
2026-05-07 17:52 60.28224 14.25148 30635 ft 514 kts 81°
2026-05-07 17:53 60.28611 14.32313 30928 ft 514 kts 81°
2026-05-07 17:53 60.28992 14.39460 31216 ft 514 kts 81°
2026-05-07 17:53 60.29365 14.46622 31509 ft 513 kts 81°
2026-05-07 17:53 60.29733 14.53783 31804 ft 513 kts 81°
2026-05-07 17:54 60.30100 14.60940 32102 ft 513 kts 81°
2026-05-07 17:54 60.30466 14.68080 32405 ft 513 kts 81°
2026-05-07 17:54 60.30829 14.75238 32691 ft 513 kts 81°
2026-05-07 17:54 60.31186 14.82395 32991 ft 512 kts 81°
2026-05-07 17:55 60.31542 14.89550 33288 ft 512 kts 81°
2026-05-07 17:55 60.31892 14.96689 33586 ft 512 kts 81°
2026-05-07 17:55 60.32240 15.03844 33882 ft 512 kts 81°
2026-05-07 17:55 60.32585 15.11001 34167 ft 512 kts 82°
2026-05-07 17:56 60.32920 15.18062 34418 ft 512 kts 82°
2026-05-07 17:56 60.33252 15.25197 34691 ft 511 kts 82°
2026-05-07 17:56 60.33580 15.32335 34968 ft 510 kts 82°
2026-05-07 17:56 60.33903 15.39463 35227 ft 509 kts 83°
2026-05-07 17:57 60.34221 15.46578 35485 ft 508 kts 83°
2026-05-07 17:57 60.34434 15.51366 35664 ft 507 kts 83°
2026-05-07 17:57 60.34848 15.60748 36005 ft 506 kts 83°
2026-05-07 17:57 60.35157 15.67819 36244 ft 505 kts 84°
2026-05-07 17:58 60.35461 15.74863 36471 ft 504 kts 84°
2026-05-07 17:58 60.35760 15.81912 36715 ft 503 kts 84°
2026-05-07 17:58 60.36054 15.88949 36950 ft 502 kts 84°
2026-05-07 17:58 60.36346 15.95977 37159 ft 502 kts 84°
2026-05-07 17:59 60.36632 16.02986 37353 ft 501 kts 85°
2026-05-07 17:59 60.36917 16.10007 37547 ft 501 kts 85°
2026-05-07 17:59 60.37197 16.17024 37742 ft 501 kts 85°
2026-05-07 17:59 60.37468 16.24021 37941 ft 500 kts 85°
2026-05-07 18:00 60.37735 16.31029 38124 ft 500 kts 85°
2026-05-07 18:00 60.37997 16.38035 38307 ft 499 kts 86°
2026-05-07 18:00 60.38258 16.45036 38486 ft 499 kts 86°
2026-05-07 18:00 60.38518 16.52018 38657 ft 499 kts 86°
2026-05-07 18:01 60.38776 16.59014 38809 ft 499 kts 86°
2026-05-07 18:01 60.38945 16.63653 38889 ft 499 kts 86°
2026-05-07 18:01 60.39197 16.70724 39032 ft 498 kts 86°
2026-05-07 18:01 60.39525 16.79983 39127 ft 499 kts 86°
2026-05-07 18:02 60.40161 16.98645 39129 ft 500 kts 86°
2026-05-07 18:03 60.40616 17.12688 39134 ft 500 kts 86°
2026-05-07 18:03 60.41059 17.26733 39141 ft 501 kts 87°
2026-05-07 18:04 60.41493 17.40816 39147 ft 502 kts 87°
2026-05-07 18:04 60.41911 17.54923 39154 ft 502 kts 87°
2026-05-07 18:05 60.42314 17.69038 39157 ft 503 kts 87°
2026-05-07 18:05 60.42701 17.83181 39159 ft 503 kts 87°
2026-05-07 18:06 60.43075 17.97314 39161 ft 503 kts 87°
2026-05-07 18:06 60.43430 18.11464 39162 ft 503 kts 87°
2026-05-07 18:07 60.43769 18.25621 39166 ft 503 kts 88°
2026-05-07 18:07 60.44096 18.39774 39168 ft 503 kts 88°
2026-05-07 18:08 60.44412 18.53950 39170 ft 504 kts 88°
2026-05-07 18:08 60.44704 18.68120 39176 ft 504 kts 88°
2026-05-07 18:09 60.44987 18.82316 39181 ft 504 kts 88°
2026-05-07 18:09 60.45260 18.96411 39182 ft 504 kts 88°
2026-05-07 18:10 60.45517 19.10636 39186 ft 504 kts 88°
2026-05-07 18:10 60.45754 19.24824 39186 ft 504 kts 88°
2026-05-07 18:11 60.45978 19.39022 39188 ft 504 kts 88°
2026-05-07 18:11 60.46190 19.53198 39189 ft 503 kts 88°
2026-05-07 18:12 60.46372 19.67389 39190 ft 503 kts 89°
2026-05-07 18:12 60.46551 19.81564 39190 ft 503 kts 89°
2026-05-07 18:13 60.46716 19.95735 39187 ft 503 kts 89°
2026-05-07 18:13 60.46858 20.09909 39186 ft 502 kts 89°
2026-05-07 18:14 60.46995 20.24057 39184 ft 502 kts 89°
2026-05-07 18:14 60.47114 20.38208 39184 ft 502 kts 89°
2026-05-07 18:15 60.47214 20.52366 39184 ft 502 kts 90°
2026-05-07 18:15 60.47302 20.66514 39186 ft 502 kts 90°
2026-05-07 18:16 60.47370 20.80675 39187 ft 502 kts 90°
2026-05-07 18:16 60.47427 20.94830 39117 ft 502 kts 90°
2026-05-07 18:16 60.47453 21.01801 38898 ft 500 kts 90°
2026-05-07 18:17 60.47474 21.08948 38636 ft 500 kts 90°
2026-05-07 18:17 60.47488 21.15893 38365 ft 500 kts 90°
2026-05-07 18:17 60.47498 21.22953 38093 ft 501 kts 90°
2026-05-07 18:17 60.47502 21.30021 37818 ft 501 kts 90°
2026-05-07 18:18 60.47505 21.37089 37124 ft 503 kts 90°
2026-05-07 18:18 60.47495 21.44179 36403 ft 502 kts 91°
2026-05-07 18:18 60.47460 21.51273 35598 ft 504 kts 91°
2026-05-07 18:18 60.47407 21.58402 34761 ft 507 kts 91°
2026-05-07 18:19 60.47346 21.65563 33836 ft 511 kts 90°
2026-05-07 18:19 60.47279 21.72783 32890 ft 513 kts 91°
2026-05-07 18:19 60.47209 21.80026 31886 ft 515 kts 91°
2026-05-07 18:19 60.47138 21.87316 30840 ft 519 kts 91°
2026-05-07 18:20 60.47067 21.94662 29681 ft 523 kts 91°
2026-05-07 18:20 60.46992 22.02042 28502 ft 525 kts 91°
2026-05-07 18:20 60.46914 22.09459 27290 ft 527 kts 91°
2026-05-07 18:20 60.46834 22.16869 26488 ft 521 kts 91°
2026-05-07 18:21 60.46754 22.24160 25713 ft 515 kts 91°
2026-05-07 18:21 60.46670 22.31380 24925 ft 510 kts 92°
2026-05-07 18:21 60.46580 22.38536 24153 ft 506 kts 92°
2026-05-07 18:21 60.46484 22.45620 23330 ft 502 kts 92°
2026-05-07 18:22 60.46386 22.52654 22600 ft 495 kts 92°
2026-05-07 18:22 60.46319 22.57353 22112 ft 491 kts 92°
2026-05-07 18:22 60.46181 22.66439 21212 ft 483 kts 92°
2026-05-07 18:22 60.46074 22.73210 20557 ft 478 kts 92°
2026-05-07 18:23 60.45972 22.79906 19894 ft 473 kts 91°
2026-05-07 18:23 60.45871 22.86519 19274 ft 468 kts 91°
2026-05-07 18:23 60.45764 22.93057 18720 ft 461 kts 92°
2026-05-07 18:23 60.45646 22.99517 18128 ft 456 kts 92°
2026-05-07 18:24 60.45523 23.05894 17621 ft 448 kts 92°
2026-05-07 18:24 60.45400 23.12149 17101 ft 442 kts 92°
2026-05-07 18:24 60.45278 23.18346 16480 ft 439 kts 92°
2026-05-07 18:24 60.45161 23.24478 16004 ft 432 kts 92°
2026-05-07 18:25 60.45046 23.30530 15449 ft 428 kts 91°
2026-05-07 18:25 60.44931 23.36526 14884 ft 424 kts 91°
2026-05-07 18:25 60.44817 23.42467 14273 ft 422 kts 91°
2026-05-07 18:25 60.44702 23.48382 13648 ft 418 kts 91°
2026-05-07 18:26 60.44585 23.54250 13044 ft 413 kts 92°
2026-05-07 18:26 60.44464 23.60012 12448 ft 407 kts 92°
2026-05-07 18:26 60.44337 23.65719 11752 ft 403 kts 92°
2026-05-07 18:26 60.44200 23.71352 11243 ft 395 kts 92°
2026-05-07 18:27 60.44059 23.76773 11103 ft 376 kts 92°
2026-05-07 18:27 60.43922 23.81957 10907 ft 361 kts 92°
2026-05-07 18:27 60.43803 23.86931 10725 ft 347 kts 90°
2026-05-07 18:27 60.43862 23.90121 10601 ft 338 kts 83°
2026-05-07 18:28 60.44217 23.96293 10332 ft 322 kts 82°
2026-05-07 18:28 60.44483 24.00722 10172 ft 312 kts 82°
2026-05-07 18:28 60.44748 24.04998 10030 ft 301 kts 82°
2026-05-07 18:28 60.45013 24.09156 9723 ft 296 kts 82°
2026-05-07 18:29 60.45264 24.13231 9198 ft 298 kts 82°
2026-05-07 18:29 60.45510 24.17422 8884 ft 292 kts 82°
2026-05-07 18:29 60.45734 24.21428 8542 ft 288 kts 83°
2026-05-07 18:29 60.45948 24.25454 8156 ft 286 kts 83°
2026-05-07 18:30 60.46166 24.29428 7799 ft 282 kts 82°
2026-05-07 18:30 60.46389 24.33281 7430 ft 268 kts 82°
2026-05-07 18:30 60.46591 24.37024 7064 ft 262 kts 83°
2026-05-07 18:30 60.46735 24.40613 6616 ft 256 kts 88°
2026-05-07 18:31 60.46676 24.44195 6035 ft 253 kts 92°
2026-05-07 18:31 60.46559 24.47724 5449 ft 249 kts 92°
2026-05-07 18:31 60.46429 24.51209 4868 ft 247 kts 92°
2026-05-07 18:31 60.46327 24.54666 4247 ft 245 kts 90°
2026-05-07 18:32 60.46251 24.58114 3675 ft 242 kts 90°
2026-05-07 18:32 60.46184 24.61542 3021 ft 244 kts 89°
2026-05-07 18:32 60.46123 24.64950 2491 ft 240 kts 90°
2026-05-07 18:32 60.46052 24.68373 2215 ft 245 kts 91°
2026-05-07 18:33 60.45958 24.71745 2162 ft 235 kts 91°
2026-05-07 18:33 60.45863 24.74979 2044 ft 225 kts 91°
2026-05-07 18:33 60.45779 24.78088 1939 ft 217 kts 91°
2026-05-07 18:33 60.45586 24.80979 1950 ft 202 kts 108°
2026-05-07 18:34 60.44927 24.83391 2005 ft 192 kts 129°
2026-05-07 18:34 60.43976 24.85131 2074 ft 179 kts 147°
2026-05-07 18:34 60.42901 24.86302 2025 ft 176 kts 155°
2026-05-07 18:34 60.41787 24.87383 2011 ft 177 kts 153°
2026-05-07 18:35 60.40704 24.88525 1878 ft 173 kts 153°
2026-05-07 18:35 60.39674 24.89605 1697 ft 158 kts 153°
2026-05-07 18:35 60.38710 24.90598 1472 ft 154 kts 154°
2026-05-07 18:35 60.37782 24.91557 1229 ft 147 kts 155°
2026-05-07 18:36 60.36889 24.92475 1044 ft 141 kts 155°
2026-05-07 18:36 60.36037 24.93359 850 ft 135 kts 155°
2026-05-07 18:36 60.35205 24.94214 683 ft 133 kts 155°
2026-05-07 18:36 60.34398 24.95038 514 ft 130 kts 155°
2026-05-07 18:37 60.33588 24.95874 349 ft 128 kts 154°
2026-05-07 18:37 60.32807 24.96677 180 ft 126 kts 155°
2026-05-07 18:37 60.32129 24.97371 165 ft 87 kts 153°
2026-05-07 18:37 60.31723 24.97785 165 ft 53 kts 153°
2026-05-07 18:38 60.31528 24.97985 165 ft 14 kts 161°
2026-05-07 18:38 60.31438 24.97939 166 ft 10 kts 225°
2026-05-07 18:38 60.31416 24.97869 166 ft 1 kts 242°
2026-05-07 18:38 60.31408 24.97837 166 ft 0 kts 244°
2026-05-07 18:39 60.31409 24.97788 166 ft 7 kts 292°
2026-05-07 18:40 60.31459 24.97720 166 ft 12 kts 332°
2026-05-07 18:40 60.31531 24.97645 166 ft 11 kts 333°
2026-05-07 18:40 60.31600 24.97575 166 ft 12 kts 333°
2026-05-07 18:40 60.31697 24.97475 166 ft 21 kts 333°
2026-05-07 18:41 60.31839 24.97329 166 ft 24 kts 333°
2026-05-07 18:41 60.31993 24.97170 166 ft 26 kts 334°
2026-05-07 18:41 60.32087 24.97072 166 ft 10 kts 333°
2026-05-07 18:41 60.32142 24.97006 166 ft 9 kts 309°
2026-05-07 18:42 60.32129 24.96913 166 ft 7 kts 226°
2026-05-07 18:42 60.32088 24.96831 166 ft 9 kts 226°
2026-05-07 18:42 60.32044 24.96732 166 ft 10 kts 227°
2026-05-07 18:42 60.32005 24.96646 166 ft 7 kts 227°
2026-05-07 18:43 60.31969 24.96635 166 ft 5 kts 150°
2026-05-07 18:43 60.31951 24.96665 166 ft 3 kts 137°
2026-05-07 18:43 60.31941 24.96684 166 ft 1 kts 138°
2026-05-07 18:43 60.31939 24.96687 166 ft 0 kts 138°